Regional Weather Roundup
Issued by NWS

Home | Current Version | Previous Version | Graphics & Text | Print | Product List | Glossary On
Versions: 1 2 3 4 5 6 7 8 9 10 11 12 13 14 15 16 17 18 19 20 21 22 23 24 25 26 27 28 29 30 31 32 33 34 35 36 37 38 39 40 41 42 43 44 45 46 47 48 49 50
752
ASUS45 KBOI 172210
RWRID

IDAHO REGIONAL WEATHER ROUNDUP
NATIONAL WEATHER SERVICE BOISE ID
300 PM MST SAT FEB 17 2018

NOTE: "FAIR" INDICATES FEW OR NO CLOUDS BELOW 12000 FEET
WITH NO SIGNIFICANT WEATHER AND/OR OBSTRUCTIONS TO VISIBILITY

IDZ012-014-172300-
SOUTHWEST IDAHO


CITY           SKY/WX    TMP DP  RH WIND       PRES   REMARKS
BOISE          CLOUDY    47  30  51 SE14      29.85F
CALDWELL       CLOUDY    49  31  49 E12       29.83F
MOUNTAIN HOME  CLOUDY    51  29  42 SE13      29.84F
$$

IDZ016-017-172300-
SOUTHCENTRAL IDAHO


CITY           SKY/WX    TMP DP  RH WIND       PRES   REMARKS
BURLEY         PTSUNNY   55  21  26 SW16G26   29.87F
JEROME         CLOUDY    50  26  39 W12       29.90F
TWIN FALLS     MOSUNNY   52  25  35 W18G24    29.89F
$$

IDZ019>023-172300-
SOUTHEAST IDAHO


CITY           SKY/WX    TMP DP  RH WIND       PRES   REMARKS
IDAHO FALLS    CLOUDY    42  21  43 S22G28    29.85F
POCATELLO      PTSUNNY   50  22  33 S24G30    29.89F
REXBURG        CLOUDY    39  23  52 SW20G31   29.83F WCI  29
$$

IDZ006-010-011-018-031-032-172300-
CENTRAL IDAHO MOUNTAINS


CITY           SKY/WX    TMP DP  RH WIND       PRES   REMARKS
MCCALL         LGT SNOW  32  29  88 SE13G22   29.74F FOG     WCI  22
HAILEY         CLOUDY    37  27  65 S12       29.89F WCI  30
STANLEY          N/A     32  27  81 SE10G22   29.78F WCI  24
SALMON         CLOUDY    41  22  46 E8        29.65F
CHALLIS        CLOUDY    44  23  43 S15G24    29.69F
$$

IDZ002-004-006-007-026-172300-
NORTHERN IDAHO


CITY           SKY/WX    TMP DP  RH WIND       PRES   REMARKS
LEWISTON       CLOUDY    48  37  65 S20G25    29.52F
LOWELL           N/A     33  32  96 VRB3      29.65F
COEUR D`ALENE  LGT RAIN  35  33  92 SE12      29.47F WCI  27
MULLAN PASS    HVY SNOW  26  23  88 VRB7      29.40F VSB<1/4 WCI  18
$$




USA.gov is the U.S. government's official web portal to all federal, state and local government web resources and services.